Location: Oberwangen
(47.4286°N, 8.9679°E)
Time: 08:03:38
(UTC+00:00)

Cosmos 1447 Rocket - Pass Details

Date: 24 October 2021
Orbit: 953 x 996 km, 82.9° (Epoch: 27 November)

Event Time Altitude Azimuth Distance (km) Brightness Sun altitude
Rises 17:03:59 0° 357° (N) 3,646 7.4 -8.1°
Reaches altitude 10° 17:06:50 10° 8° (N) 2,694 6.7 -8.6°
Maximum altitude 17:12:12 31° 69° (ENE) 1,627 5.2 -9.5°
Drops below altitude 10° 17:17:32 10° 130° (SE) 2,682 6.4 -10.4°
Sets 17:20:20 0° 141° (SE) 3,627 7.2 -10.8°
